Year,Month,Day,Hour,Minute,Value (Times are PST for temperature in C)
2017,07,14,00,00,11.10
2017,07,14,00,01,11.10
2017,07,14,00,02,11.10
2017,07,14,00,03,11.00
2017,07,14,00,04,11.00
2017,07,14,00,05,10.90
2017,07,14,00,06,10.90
2017,07,14,00,07,10.90
2017,07,14,00,08,10.90
2017,07,14,00,09,10.90
2017,07,14,00,10,10.80
2017,07,14,00,11,10.80
2017,07,14,00,12,10.80
2017,07,14,00,13,10.80
2017,07,14,00,14,10.70
2017,07,14,00,15,10.70
2017,07,14,00,16,10.70
2017,07,14,00,17,10.70
2017,07,14,00,18,10.70
2017,07,14,00,19,10.70
2017,07,14,00,20,10.70
2017,07,14,00,21,10.70
2017,07,14,00,22,10.70
2017,07,14,00,23,10.70
2017,07,14,00,24,10.70
2017,07,14,00,25,10.70
2017,07,14,00,26,10.70
2017,07,14,00,27,10.70
2017,07,14,00,28,10.70
2017,07,14,00,29,10.80
2017,07,14,00,30,10.80
2017,07,14,00,31,10.80
2017,07,14,00,32,10.80
2017,07,14,00,33,10.80
2017,07,14,00,34,10.90
2017,07,14,00,35,10.90
2017,07,14,00,36,10.90
2017,07,14,00,37,11.00
2017,07,14,00,38,11.00
2017,07,14,00,39,11.00
2017,07,14,00,40,11.00
2017,07,14,00,41,11.10
2017,07,14,00,42,11.10
2017,07,14,00,43,11.10
2017,07,14,00,44,11.10
2017,07,14,00,45,11.10
2017,07,14,00,46,11.10
2017,07,14,00,47,11.20
2017,07,14,00,48,11.20
2017,07,14,00,49,11.20
2017,07,14,00,50,11.20
2017,07,14,00,51,11.20
2017,07,14,00,52,11.20
2017,07,14,00,53,11.20
2017,07,14,00,54,11.20
2017,07,14,00,55,11.20
2017,07,14,00,56,11.20
2017,07,14,00,57,11.20
2017,07,14,00,58,11.10
2017,07,14,00,59,11.10
2017,07,14,01,00,11.10
2017,07,14,01,01,11.20
2017,07,14,01,02,11.20
2017,07,14,01,03,11.20
2017,07,14,01,04,11.20
2017,07,14,01,05,11.10
2017,07,14,01,06,11.10
2017,07,14,01,07,11.10
2017,07,14,01,08,11.10
2017,07,14,01,09,11.10
2017,07,14,01,10,11.10
2017,07,14,01,11,11.00
2017,07,14,01,12,11.00
2017,07,14,01,13,11.00
2017,07,14,01,14,11.00
2017,07,14,01,15,11.00
2017,07,14,01,16,10.90
2017,07,14,01,17,10.90
2017,07,14,01,18,10.90
2017,07,14,01,19,10.90
2017,07,14,01,20,10.90
2017,07,14,01,21,10.90
2017,07,14,01,22,10.90
2017,07,14,01,23,10.80
2017,07,14,01,24,10.80
2017,07,14,01,25,10.80
2017,07,14,01,26,10.80
2017,07,14,01,27,10.70
2017,07,14,01,28,10.70
2017,07,14,01,29,10.70
2017,07,14,01,30,10.70
2017,07,14,01,31,10.70
2017,07,14,01,32,10.60
2017,07,14,01,33,10.60
2017,07,14,01,34,10.60
2017,07,14,01,35,10.50
2017,07,14,01,36,10.50
2017,07,14,01,37,10.40
2017,07,14,01,38,10.40
2017,07,14,01,39,10.40
2017,07,14,01,40,10.40
2017,07,14,01,41,10.30
2017,07,14,01,42,10.30
2017,07,14,01,43,10.30
2017,07,14,01,44,10.30
2017,07,14,01,45,10.30
2017,07,14,01,46,10.30
2017,07,14,01,47,10.30
2017,07,14,01,48,10.30
2017,07,14,01,49,10.30
2017,07,14,01,50,10.30
2017,07,14,01,51,10.30
2017,07,14,01,52,10.30
2017,07,14,01,53,10.30
2017,07,14,01,54,10.30
2017,07,14,01,55,10.30
2017,07,14,01,56,10.30
2017,07,14,01,57,10.30
2017,07,14,01,58,10.40
2017,07,14,01,59,10.40
2017,07,14,02,00,10.40
2017,07,14,02,01,10.40
2017,07,14,02,02,10.40
2017,07,14,02,03,10.50
2017,07,14,02,04,10.50
2017,07,14,02,05,10.50
2017,07,14,02,06,10.50
2017,07,14,02,07,10.50
2017,07,14,02,08,10.60
2017,07,14,02,09,10.60
2017,07,14,02,10,10.60
2017,07,14,02,11,10.50
2017,07,14,02,12,10.50
2017,07,14,02,13,10.50
2017,07,14,02,14,10.50
2017,07,14,02,15,10.50
2017,07,14,02,16,10.50
2017,07,14,02,17,10.50
2017,07,14,02,18,10.50
2017,07,14,02,19,10.50
2017,07,14,02,20,10.50
2017,07,14,02,21,10.50
2017,07,14,02,22,10.50
2017,07,14,02,23,10.50
2017,07,14,02,24,10.50
2017,07,14,02,25,10.50
2017,07,14,02,26,10.50
2017,07,14,02,27,10.40
2017,07,14,02,28,10.40
2017,07,14,02,29,10.40
2017,07,14,02,30,10.40
2017,07,14,02,31,10.40
2017,07,14,02,32,10.40
2017,07,14,02,33,10.40
2017,07,14,02,34,10.40
2017,07,14,02,35,10.40
2017,07,14,02,36,10.40
2017,07,14,02,37,10.30
2017,07,14,02,38,10.30
2017,07,14,02,39,10.30
2017,07,14,02,40,10.30
2017,07,14,02,41,10.30
2017,07,14,02,42,10.30
2017,07,14,02,43,10.30
2017,07,14,02,44,10.30
2017,07,14,02,45,10.30
2017,07,14,02,46,10.30
2017,07,14,02,47,10.30
2017,07,14,02,48,10.30
2017,07,14,02,49,10.20
2017,07,14,02,50,10.20
2017,07,14,02,51,10.20
2017,07,14,02,52,10.20
2017,07,14,02,53,10.20
2017,07,14,02,54,10.20
2017,07,14,02,55,10.20
2017,07,14,02,56,10.20
2017,07,14,02,57,10.20
2017,07,14,02,58,10.20
2017,07,14,02,59,10.20
2017,07,14,03,00,10.20
2017,07,14,03,01,10.20
2017,07,14,03,02,10.20
2017,07,14,03,03,10.20
2017,07,14,03,04,10.20
2017,07,14,03,05,10.20
2017,07,14,03,06,10.20
2017,07,14,03,07,10.20
2017,07,14,03,08,10.20
2017,07,14,03,09,10.20
2017,07,14,03,10,10.10
2017,07,14,03,11,10.10
2017,07,14,03,12,10.10
2017,07,14,03,13,10.10
2017,07,14,03,14,10.10
2017,07,14,03,15,10.10
2017,07,14,03,16,10.00
2017,07,14,03,17,10.00
2017,07,14,03,18,10.00
2017,07,14,03,19,9.90
2017,07,14,03,20,9.90
2017,07,14,03,21,9.90
2017,07,14,03,22,9.90
2017,07,14,03,23,9.90
2017,07,14,03,24,9.90
2017,07,14,03,25,9.90
2017,07,14,03,26,9.90
2017,07,14,03,27,9.80
2017,07,14,03,28,9.80
2017,07,14,03,29,9.80
2017,07,14,03,30,9.80
2017,07,14,03,31,9.80
2017,07,14,03,32,9.80
2017,07,14,03,33,9.80
2017,07,14,03,34,9.80
2017,07,14,03,35,9.80
2017,07,14,03,36,9.70
2017,07,14,03,37,9.70
2017,07,14,03,38,9.70
2017,07,14,03,39,9.70
2017,07,14,03,40,9.70
2017,07,14,03,41,9.70
2017,07,14,03,42,9.70
2017,07,14,03,43,9.70
2017,07,14,03,44,9.70
2017,07,14,03,45,9.60
2017,07,14,03,46,9.60
2017,07,14,03,47,9.60
2017,07,14,03,48,9.60
2017,07,14,03,49,9.60
2017,07,14,03,50,9.60
2017,07,14,03,51,9.60
2017,07,14,03,52,9.60
2017,07,14,03,53,9.70
2017,07,14,03,54,9.70
2017,07,14,03,55,9.70
2017,07,14,03,56,9.70
2017,07,14,03,57,9.70
2017,07,14,03,58,9.70
2017,07,14,03,59,9.70
2017,07,14,04,00,9.70
2017,07,14,04,01,9.70
2017,07,14,04,02,9.70
2017,07,14,04,03,9.70
2017,07,14,04,04,9.70
2017,07,14,04,05,9.70
2017,07,14,04,06,9.70
2017,07,14,04,07,9.70
2017,07,14,04,08,9.70
2017,07,14,04,09,9.70
2017,07,14,04,10,9.70
2017,07,14,04,11,9.70
2017,07,14,04,12,9.70
2017,07,14,04,13,9.70
2017,07,14,04,14,9.70
2017,07,14,04,15,9.60
2017,07,14,04,16,9.60
2017,07,14,04,17,9.60
2017,07,14,04,18,9.60
2017,07,14,04,19,9.60
2017,07,14,04,20,9.60
2017,07,14,04,21,9.60
2017,07,14,04,22,9.60
2017,07,14,04,23,9.60
2017,07,14,04,24,9.60
2017,07,14,04,25,9.60
2017,07,14,04,26,9.60
2017,07,14,04,27,9.60
2017,07,14,04,28,9.60
2017,07,14,04,29,9.60
2017,07,14,04,30,9.60
2017,07,14,04,31,9.60
2017,07,14,04,32,9.60
2017,07,14,04,33,9.60
2017,07,14,04,34,9.60
2017,07,14,04,35,9.60
2017,07,14,04,36,9.60
2017,07,14,04,37,9.60
2017,07,14,04,38,9.60
2017,07,14,04,39,9.60
2017,07,14,04,40,9.60
2017,07,14,04,41,9.60
2017,07,14,04,42,9.50
2017,07,14,04,43,9.50
2017,07,14,04,44,9.50
2017,07,14,04,45,9.50
2017,07,14,04,46,9.50
2017,07,14,04,47,9.50
2017,07,14,04,48,9.40
2017,07,14,04,49,9.40
2017,07,14,04,50,9.40
2017,07,14,04,51,9.40
2017,07,14,04,52,9.40
2017,07,14,04,53,9.30
2017,07,14,04,54,9.30
2017,07,14,04,55,9.30
2017,07,14,04,56,9.30
2017,07,14,04,57,9.30
2017,07,14,04,58,9.20
2017,07,14,04,59,9.20
2017,07,14,05,00,9.20
2017,07,14,05,01,9.20
2017,07,14,05,02,9.10
2017,07,14,05,03,9.10
2017,07,14,05,04,9.10
2017,07,14,05,05,9.00
2017,07,14,05,06,8.90
2017,07,14,05,07,8.90
2017,07,14,05,08,8.90
2017,07,14,05,09,8.80
2017,07,14,05,10,8.80
2017,07,14,05,11,8.80
2017,07,14,05,12,8.70
2017,07,14,05,13,8.70
2017,07,14,05,14,8.70
2017,07,14,05,15,8.60
2017,07,14,05,16,8.60
2017,07,14,05,17,8.60
2017,07,14,05,18,8.60
2017,07,14,05,19,8.50
2017,07,14,05,20,8.50
2017,07,14,05,21,8.50
2017,07,14,05,22,8.40
2017,07,14,05,23,8.40
2017,07,14,05,24,8.40
2017,07,14,05,25,8.40
2017,07,14,05,26,8.40
2017,07,14,05,27,8.30
2017,07,14,05,28,8.30
2017,07,14,05,29,8.30
2017,07,14,05,30,8.30
2017,07,14,05,31,8.30
2017,07,14,05,32,8.20
2017,07,14,05,33,8.20
2017,07,14,05,34,8.20
2017,07,14,05,35,8.20
2017,07,14,05,36,8.20
2017,07,14,05,37,8.20
2017,07,14,05,38,8.20
2017,07,14,05,39,8.10
2017,07,14,05,40,8.10
2017,07,14,05,41,8.10
2017,07,14,05,42,8.10
2017,07,14,05,43,8.10
2017,07,14,05,44,8.10
2017,07,14,05,45,8.10
2017,07,14,05,46,8.10
2017,07,14,05,47,8.10
2017,07,14,05,48,8.10
2017,07,14,05,49,8.10
2017,07,14,05,50,8.10
2017,07,14,05,51,8.00
2017,07,14,05,52,8.00
2017,07,14,05,53,8.00
2017,07,14,05,54,8.00
2017,07,14,05,55,8.00
2017,07,14,05,56,8.00
2017,07,14,05,57,8.00
2017,07,14,05,58,8.00
2017,07,14,05,59,8.00
2017,07,14,06,00,8.00
2017,07,14,06,01,8.00
2017,07,14,06,02,8.00
2017,07,14,06,03,7.90
2017,07,14,06,04,7.90
2017,07,14,06,05,7.90
2017,07,14,06,06,7.90
2017,07,14,06,07,7.90
2017,07,14,06,08,7.90
2017,07,14,06,09,7.90
2017,07,14,06,10,7.90
2017,07,14,06,11,7.90
2017,07,14,06,12,7.90
2017,07,14,06,13,7.90
2017,07,14,06,14,7.90
2017,07,14,06,15,7.90
2017,07,14,06,16,7.90
2017,07,14,06,17,7.90
2017,07,14,06,18,7.90
2017,07,14,06,19,7.90
2017,07,14,06,20,7.90
2017,07,14,06,21,7.90
2017,07,14,06,22,7.90
2017,07,14,06,23,7.90
2017,07,14,06,24,7.90
2017,07,14,06,25,7.90
2017,07,14,06,26,7.90
2017,07,14,06,27,7.90
2017,07,14,06,28,7.90
2017,07,14,06,29,7.90
2017,07,14,06,30,7.90
2017,07,14,06,31,7.90
2017,07,14,06,32,7.90
2017,07,14,06,33,7.90
2017,07,14,06,34,7.90
2017,07,14,06,35,7.90
2017,07,14,06,36,7.90
2017,07,14,06,37,7.90
2017,07,14,06,38,7.90
2017,07,14,06,39,7.90
2017,07,14,06,40,7.90
2017,07,14,06,41,7.90
2017,07,14,06,42,7.90
2017,07,14,06,43,7.90
2017,07,14,06,44,7.90
2017,07,14,06,45,7.90
2017,07,14,06,46,7.90
2017,07,14,06,47,7.90
2017,07,14,06,48,7.90
2017,07,14,06,49,7.90
2017,07,14,06,50,7.90
2017,07,14,06,51,7.90
2017,07,14,06,52,7.90
2017,07,14,06,53,7.90
2017,07,14,06,54,7.90
2017,07,14,06,55,7.90
2017,07,14,06,56,8.00
2017,07,14,06,57,8.00
2017,07,14,06,58,8.00
2017,07,14,06,59,8.00
2017,07,14,07,00,8.00
2017,07,14,07,01,8.00
2017,07,14,07,02,8.10
2017,07,14,07,03,8.10
2017,07,14,07,04,8.10
2017,07,14,07,05,8.10
2017,07,14,07,06,8.10
2017,07,14,07,07,8.10
2017,07,14,07,08,8.10
2017,07,14,07,09,8.20
2017,07,14,07,10,8.20
2017,07,14,07,11,8.20
2017,07,14,07,12,8.30
2017,07,14,07,13,8.30
2017,07,14,07,14,8.40
2017,07,14,07,15,8.40
2017,07,14,07,16,8.50
2017,07,14,07,17,8.50
2017,07,14,07,18,8.50
2017,07,14,07,19,8.60
2017,07,14,07,20,8.60
2017,07,14,07,21,8.60
2017,07,14,07,22,8.70
2017,07,14,07,23,8.80
2017,07,14,07,24,8.80
2017,07,14,07,25,8.90
2017,07,14,07,26,9.00
2017,07,14,07,27,9.00
2017,07,14,07,28,9.10
2017,07,14,07,29,9.10
2017,07,14,07,30,9.20
2017,07,14,07,31,9.20
2017,07,14,07,32,9.30
2017,07,14,07,33,9.40
2017,07,14,07,34,9.40
2017,07,14,07,35,9.50
2017,07,14,07,36,9.50
2017,07,14,07,37,9.60
2017,07,14,07,38,9.60
2017,07,14,07,39,9.70
2017,07,14,07,40,9.80
2017,07,14,07,41,9.80
2017,07,14,07,42,9.90
2017,07,14,07,43,10.00
2017,07,14,07,44,10.10
2017,07,14,07,45,10.20
2017,07,14,07,46,10.20
2017,07,14,07,47,10.30
2017,07,14,07,48,10.40
2017,07,14,07,49,10.40
2017,07,14,07,50,10.50
2017,07,14,07,51,10.50
2017,07,14,07,52,10.60
2017,07,14,07,53,10.60
2017,07,14,07,54,10.70
2017,07,14,07,55,10.80
2017,07,14,07,56,10.80
2017,07,14,07,57,10.90
2017,07,14,07,58,10.90
2017,07,14,07,59,11.00
2017,07,14,08,00,11.10
2017,07,14,08,01,11.10
2017,07,14,08,02,11.20
2017,07,14,08,03,11.30
2017,07,14,08,04,11.40
2017,07,14,08,05,11.50
2017,07,14,08,06,11.60
2017,07,14,08,07,11.60
2017,07,14,08,08,11.70
2017,07,14,08,09,11.80
2017,07,14,08,10,11.90
2017,07,14,08,11,12.00
2017,07,14,08,12,12.10
2017,07,14,08,13,12.10
2017,07,14,08,14,12.20
2017,07,14,08,15,12.30
2017,07,14,08,16,12.40
2017,07,14,08,17,12.50
2017,07,14,08,18,12.60
2017,07,14,08,19,12.60
2017,07,14,08,20,12.70
2017,07,14,08,21,12.80
2017,07,14,08,22,12.90
2017,07,14,08,23,13.00
2017,07,14,08,24,13.10
2017,07,14,08,25,13.10
2017,07,14,08,26,13.20
2017,07,14,08,27,13.30
2017,07,14,08,28,13.30
2017,07,14,08,29,13.40
2017,07,14,08,30,13.40
2017,07,14,08,31,13.40
2017,07,14,08,32,13.50
2017,07,14,08,33,13.40
2017,07,14,08,34,13.50
2017,07,14,08,35,13.50
2017,07,14,08,36,13.50
2017,07,14,08,37,13.50
2017,07,14,08,38,13.60
2017,07,14,08,39,13.60
2017,07,14,08,40,13.70
2017,07,14,08,41,13.80
2017,07,14,08,42,13.80
2017,07,14,08,43,13.80
2017,07,14,08,44,13.90
2017,07,14,08,45,13.90
2017,07,14,08,46,13.90
2017,07,14,08,47,13.90
2017,07,14,08,48,13.90
2017,07,14,08,49,13.90
2017,07,14,08,50,13.90
2017,07,14,08,51,13.90
2017,07,14,08,52,13.90
2017,07,14,08,53,13.90
2017,07,14,08,54,14.00
2017,07,14,08,55,14.00
2017,07,14,08,56,14.10
2017,07,14,08,57,14.10
2017,07,14,08,58,14.20
2017,07,14,08,59,14.20
2017,07,14,09,00,14.30
2017,07,14,09,01,14.40
2017,07,14,09,02,14.50
2017,07,14,09,03,14.60
2017,07,14,09,04,14.70
2017,07,14,09,05,14.70
2017,07,14,09,06,14.80
2017,07,14,09,07,14.90
2017,07,14,09,08,15.00
2017,07,14,09,09,15.00
2017,07,14,09,10,15.00
2017,07,14,09,11,15.00
2017,07,14,09,12,15.00
2017,07,14,09,13,15.00
2017,07,14,09,14,15.00
2017,07,14,09,15,15.00
2017,07,14,09,16,15.00
2017,07,14,09,17,15.00
2017,07,14,09,18,15.00
2017,07,14,09,19,15.00
2017,07,14,09,20,15.00
2017,07,14,09,21,15.00
2017,07,14,09,22,15.00
2017,07,14,09,23,15.00
2017,07,14,09,24,15.00
2017,07,14,09,25,15.00
2017,07,14,09,26,15.10
2017,07,14,09,27,15.20
2017,07,14,09,28,15.20
2017,07,14,09,29,15.30
2017,07,14,09,30,15.30
2017,07,14,09,31,15.50
2017,07,14,09,32,15.60
2017,07,14,09,33,15.70
2017,07,14,09,34,15.80
2017,07,14,09,35,15.90
2017,07,14,09,36,16.10
2017,07,14,09,37,16.10
2017,07,14,09,38,16.10
2017,07,14,09,39,16.30
2017,07,14,09,40,16.40
2017,07,14,09,41,16.40
2017,07,14,09,42,16.40
2017,07,14,09,43,16.40
2017,07,14,09,44,16.40
2017,07,14,09,45,16.40
2017,07,14,09,46,16.40
2017,07,14,09,47,16.50
2017,07,14,09,48,16.60
2017,07,14,09,49,16.70
2017,07,14,09,50,16.80
2017,07,14,09,51,16.90
2017,07,14,09,52,16.90
2017,07,14,09,53,17.00
2017,07,14,09,54,17.00
2017,07,14,09,55,17.00
2017,07,14,09,56,17.10
2017,07,14,09,57,17.10
2017,07,14,09,58,17.10
2017,07,14,09,59,17.10
2017,07,14,10,00,17.10
2017,07,14,10,01,17.10
2017,07,14,10,02,17.20
2017,07,14,10,03,17.20
2017,07,14,10,04,17.30
2017,07,14,10,05,17.30
2017,07,14,10,06,17.40
2017,07,14,10,07,17.50
2017,07,14,10,08,17.60
2017,07,14,10,09,17.70
2017,07,14,10,10,17.80
2017,07,14,10,11,17.90
2017,07,14,10,12,18.10
2017,07,14,10,13,18.10
2017,07,14,10,14,18.20
2017,07,14,10,15,18.20
2017,07,14,10,16,18.40
2017,07,14,10,17,18.50
2017,07,14,10,18,18.60
2017,07,14,10,19,18.60
2017,07,14,10,20,18.70
2017,07,14,10,21,18.80
2017,07,14,10,22,18.70
2017,07,14,10,23,18.70
2017,07,14,10,24,18.80
2017,07,14,10,25,18.80
2017,07,14,10,26,18.80
2017,07,14,10,27,18.80
2017,07,14,10,28,18.80
2017,07,14,10,29,18.90
2017,07,14,10,30,19.10
2017,07,14,10,31,19.20
2017,07,14,10,32,19.20
2017,07,14,10,33,19.20
2017,07,14,10,34,19.30
2017,07,14,10,35,19.40
2017,07,14,10,36,19.50
2017,07,14,10,37,19.60
2017,07,14,10,38,19.70
2017,07,14,10,39,19.80
2017,07,14,10,40,19.80
2017,07,14,10,41,19.80
2017,07,14,10,42,19.80
2017,07,14,10,43,19.80
2017,07,14,10,44,19.80
2017,07,14,10,45,19.80
2017,07,14,10,46,19.80
2017,07,14,10,47,19.80
2017,07,14,10,48,19.90
2017,07,14,10,49,19.90
2017,07,14,10,50,20.00
2017,07,14,10,51,20.00
2017,07,14,10,52,20.10
2017,07,14,10,53,20.20
2017,07,14,10,54,20.30
2017,07,14,10,55,20.40
2017,07,14,10,56,20.40
2017,07,14,10,57,20.50
2017,07,14,10,58,20.60
2017,07,14,10,59,20.60
2017,07,14,11,00,20.60
2017,07,14,11,01,20.50
2017,07,14,11,02,20.50
2017,07,14,11,03,20.60
2017,07,14,11,04,20.60
2017,07,14,11,05,20.70
2017,07,14,11,06,20.70
2017,07,14,11,07,20.80
2017,07,14,11,08,20.90
2017,07,14,11,09,21.00
2017,07,14,11,10,21.10
2017,07,14,11,11,21.20
2017,07,14,11,12,21.10
2017,07,14,11,13,21.00
2017,07,14,11,14,21.00
2017,07,14,11,15,20.90
2017,07,14,11,16,20.80
2017,07,14,11,17,20.70
2017,07,14,11,18,20.60
2017,07,14,11,19,20.50
2017,07,14,11,20,20.50
2017,07,14,11,21,20.50
2017,07,14,11,22,20.50
2017,07,14,11,23,20.60
2017,07,14,11,24,20.60
2017,07,14,11,25,20.70
2017,07,14,11,26,20.80
2017,07,14,11,27,20.90
2017,07,14,11,28,21.00
2017,07,14,11,29,21.00
2017,07,14,11,30,21.10
2017,07,14,11,31,21.20
2017,07,14,11,32,21.20
2017,07,14,11,33,21.30
2017,07,14,11,34,21.30
2017,07,14,11,35,21.40
2017,07,14,11,36,21.40
2017,07,14,11,37,21.50
2017,07,14,11,38,21.60
2017,07,14,11,39,21.60
2017,07,14,11,40,21.50
2017,07,14,11,41,21.40
2017,07,14,11,42,21.40
2017,07,14,11,43,21.30
2017,07,14,11,44,21.10
2017,07,14,11,45,21.10
2017,07,14,11,46,21.00
2017,07,14,11,47,20.90
2017,07,14,11,48,20.90
2017,07,14,11,49,21.00
2017,07,14,11,50,21.10
2017,07,14,11,51,21.20
2017,07,14,11,52,21.40
2017,07,14,11,53,21.60
2017,07,14,11,54,21.70
2017,07,14,11,55,21.80
2017,07,14,11,56,21.80
2017,07,14,11,57,21.90
2017,07,14,11,58,21.90
2017,07,14,11,59,22.00
2017,07,14,12,00,22.10
2017,07,14,12,01,22.10
2017,07,14,12,02,22.20
2017,07,14,12,03,22.30
2017,07,14,12,04,22.30
2017,07,14,12,05,22.40
2017,07,14,12,06,22.40
2017,07,14,12,07,22.40
2017,07,14,12,08,22.40
2017,07,14,12,09,22.50
2017,07,14,12,10,22.60
2017,07,14,12,11,22.60
2017,07,14,12,12,22.60
2017,07,14,12,13,22.70
2017,07,14,12,14,22.70
2017,07,14,12,15,22.80
2017,07,14,12,16,22.80
2017,07,14,12,17,22.80
2017,07,14,12,18,22.60
2017,07,14,12,19,22.50
2017,07,14,12,20,22.40
2017,07,14,12,21,22.40
2017,07,14,12,22,22.50
2017,07,14,12,23,22.50
2017,07,14,12,24,22.50
2017,07,14,12,25,22.30
2017,07,14,12,26,22.20
2017,07,14,12,27,22.10
2017,07,14,12,28,22.10
2017,07,14,12,29,22.10
2017,07,14,12,30,22.20
2017,07,14,12,31,22.20
2017,07,14,12,32,22.20
2017,07,14,12,33,22.20
2017,07,14,12,34,22.20
2017,07,14,12,35,22.20
2017,07,14,12,36,22.20
2017,07,14,12,37,22.20
2017,07,14,12,38,22.20
2017,07,14,12,39,22.40
2017,07,14,12,40,22.50
2017,07,14,12,41,22.60
2017,07,14,12,42,22.70
2017,07,14,12,43,22.80
2017,07,14,12,44,22.90
2017,07,14,12,45,23.00
2017,07,14,12,46,23.20
2017,07,14,12,47,23.30
2017,07,14,12,48,23.40
2017,07,14,12,49,23.40
2017,07,14,12,50,23.40
2017,07,14,12,51,23.30
2017,07,14,12,52,23.30
2017,07,14,12,53,23.40
2017,07,14,12,54,23.40
2017,07,14,12,55,23.40
2017,07,14,12,56,23.40
2017,07,14,12,57,23.20
2017,07,14,12,58,23.10
2017,07,14,12,59,23.00
2017,07,14,13,00,22.80
2017,07,14,13,01,22.70
2017,07,14,13,02,22.50
2017,07,14,13,03,22.40
2017,07,14,13,04,22.30
2017,07,14,13,05,22.30
2017,07,14,13,06,22.20
2017,07,14,13,07,22.20
2017,07,14,13,08,22.20
2017,07,14,13,09,22.20
2017,07,14,13,10,22.30
2017,07,14,13,11,22.30
2017,07,14,13,12,22.50
2017,07,14,13,13,22.60
2017,07,14,13,14,22.80
2017,07,14,13,15,22.90
2017,07,14,13,16,23.00
2017,07,14,13,17,23.20
2017,07,14,13,18,23.30
2017,07,14,13,19,23.40
2017,07,14,13,20,23.50
2017,07,14,13,21,23.70
2017,07,14,13,22,23.80
2017,07,14,13,23,23.90
2017,07,14,13,24,24.00
2017,07,14,13,25,24.00
2017,07,14,13,26,23.90
2017,07,14,13,27,23.90
2017,07,14,13,28,23.90
2017,07,14,13,29,23.80
2017,07,14,13,30,23.80
2017,07,14,13,31,23.80
2017,07,14,13,32,23.90
2017,07,14,13,33,23.90
2017,07,14,13,34,24.00
2017,07,14,13,35,24.00
2017,07,14,13,36,23.90
2017,07,14,13,37,24.00
2017,07,14,13,38,24.00
2017,07,14,13,39,24.00
2017,07,14,13,40,24.10
2017,07,14,13,41,24.20
2017,07,14,13,42,24.20
2017,07,14,13,43,24.20
2017,07,14,13,44,24.30
2017,07,14,13,45,24.40
2017,07,14,13,46,24.50
2017,07,14,13,47,24.50
2017,07,14,13,48,24.50
2017,07,14,13,49,24.40
2017,07,14,13,50,24.30
2017,07,14,13,51,24.30
2017,07,14,13,52,24.30
2017,07,14,13,53,24.30
2017,07,14,13,54,24.30
2017,07,14,13,55,24.20
2017,07,14,13,56,24.20
2017,07,14,13,57,24.20
2017,07,14,13,58,24.20
2017,07,14,13,59,24.20
2017,07,14,14,00,24.30
2017,07,14,14,01,24.40
2017,07,14,14,02,24.50
2017,07,14,14,03,24.60
2017,07,14,14,04,24.60
2017,07,14,14,05,24.60
2017,07,14,14,06,24.70
2017,07,14,14,07,24.80
2017,07,14,14,08,24.90
2017,07,14,14,09,24.90
2017,07,14,14,10,24.80
2017,07,14,14,11,24.60
2017,07,14,14,12,24.50
2017,07,14,14,13,24.30
2017,07,14,14,14,24.30
2017,07,14,14,15,24.20
2017,07,14,14,16,24.20
2017,07,14,14,17,24.10
2017,07,14,14,18,24.10
2017,07,14,14,19,24.10
2017,07,14,14,20,24.10
2017,07,14,14,21,24.00
2017,07,14,14,22,23.90
2017,07,14,14,23,23.90
2017,07,14,14,24,23.90
2017,07,14,14,25,24.00
2017,07,14,14,26,24.10
2017,07,14,14,27,24.10
2017,07,14,14,28,24.20
2017,07,14,14,29,24.20
2017,07,14,14,30,24.20
2017,07,14,14,31,24.20
2017,07,14,14,32,24.20
2017,07,14,14,33,24.10
2017,07,14,14,34,24.10
2017,07,14,14,35,24.00
2017,07,14,14,36,24.00
2017,07,14,14,37,24.00
2017,07,14,14,38,24.00
2017,07,14,14,39,24.00
2017,07,14,14,40,24.10
2017,07,14,14,41,24.20
2017,07,14,14,42,24.20
2017,07,14,14,43,24.30
2017,07,14,14,44,24.40
2017,07,14,14,45,24.40
2017,07,14,14,46,24.50
2017,07,14,14,47,24.50
2017,07,14,14,48,24.60
2017,07,14,14,49,24.70
2017,07,14,14,50,24.60
2017,07,14,14,51,24.50
2017,07,14,14,52,24.30
2017,07,14,14,53,24.30
2017,07,14,14,54,24.30
2017,07,14,14,55,24.20
2017,07,14,14,56,24.20
2017,07,14,14,57,24.20
2017,07,14,14,58,24.20
2017,07,14,14,59,24.20
2017,07,14,15,00,24.30
2017,07,14,15,01,24.40
2017,07,14,15,02,24.50
2017,07,14,15,03,24.60
2017,07,14,15,04,24.60
2017,07,14,15,05,24.50
2017,07,14,15,06,24.40
2017,07,14,15,07,24.30
2017,07,14,15,08,24.30
2017,07,14,15,09,24.30
2017,07,14,15,10,24.30
2017,07,14,15,11,24.40
2017,07,14,15,12,24.40
2017,07,14,15,13,24.40
2017,07,14,15,14,24.40
2017,07,14,15,15,24.40
2017,07,14,15,16,24.50
2017,07,14,15,17,24.50
2017,07,14,15,18,24.60
2017,07,14,15,19,24.60
2017,07,14,15,20,24.70
2017,07,14,15,21,24.70
2017,07,14,15,22,24.70
2017,07,14,15,23,24.70
2017,07,14,15,24,24.70
2017,07,14,15,25,24.60
2017,07,14,15,26,24.60
2017,07,14,15,27,24.50
2017,07,14,15,28,24.60
2017,07,14,15,29,24.60
2017,07,14,15,30,24.50
2017,07,14,15,31,24.40
2017,07,14,15,32,24.40
2017,07,14,15,33,24.40
2017,07,14,15,34,24.50
2017,07,14,15,35,24.50
2017,07,14,15,36,24.50
2017,07,14,15,37,24.60
2017,07,14,15,38,24.60
2017,07,14,15,39,24.50
2017,07,14,15,40,24.50
2017,07,14,15,41,24.40
2017,07,14,15,42,24.40
2017,07,14,15,43,24.30
2017,07,14,15,44,24.30
2017,07,14,15,45,24.30
2017,07,14,15,46,24.30
2017,07,14,15,47,24.30
2017,07,14,15,48,24.30
2017,07,14,15,49,24.40
2017,07,14,15,50,24.40
2017,07,14,15,51,24.40
2017,07,14,15,52,24.40
2017,07,14,15,53,24.40
2017,07,14,15,54,24.40
2017,07,14,15,55,24.40
2017,07,14,15,56,24.30
2017,07,14,15,57,24.30
2017,07,14,15,58,24.40
2017,07,14,15,59,24.40
2017,07,14,16,00,24.50
2017,07,14,16,01,24.60
2017,07,14,16,02,24.60
2017,07,14,16,03,24.70
2017,07,14,16,04,24.60
2017,07,14,16,05,24.60
2017,07,14,16,06,24.50
2017,07,14,16,07,24.50
2017,07,14,16,08,24.50
2017,07,14,16,09,24.60
2017,07,14,16,10,24.60
2017,07,14,16,11,24.50
2017,07,14,16,12,24.50
2017,07,14,16,13,24.50
2017,07,14,16,14,24.50
2017,07,14,16,15,24.50
2017,07,14,16,16,24.60
2017,07,14,16,17,24.60
2017,07,14,16,18,24.70
2017,07,14,16,19,24.70
2017,07,14,16,20,24.70
2017,07,14,16,21,24.80
2017,07,14,16,22,24.80
2017,07,14,16,23,24.90
2017,07,14,16,24,25.00
2017,07,14,16,25,25.00
2017,07,14,16,26,25.00
2017,07,14,16,27,25.10
2017,07,14,16,28,25.10
2017,07,14,16,29,24.90
2017,07,14,16,30,24.80
2017,07,14,16,31,24.70
2017,07,14,16,32,24.70
2017,07,14,16,33,24.60
2017,07,14,16,34,24.50
2017,07,14,16,35,24.40
2017,07,14,16,36,24.40
2017,07,14,16,37,24.40
2017,07,14,16,38,24.40
2017,07,14,16,39,24.40
2017,07,14,16,40,24.40
2017,07,14,16,41,24.40
2017,07,14,16,42,24.40
2017,07,14,16,43,24.40
2017,07,14,16,44,24.30
2017,07,14,16,45,24.30
2017,07,14,16,46,24.30
2017,07,14,16,47,24.40
2017,07,14,16,48,24.40
2017,07,14,16,49,24.40
2017,07,14,16,50,24.40
2017,07,14,16,51,24.50
2017,07,14,16,52,24.50
2017,07,14,16,53,24.50
2017,07,14,16,54,24.60
2017,07,14,16,55,24.60
2017,07,14,16,56,24.60
2017,07,14,16,57,24.70
2017,07,14,16,58,24.70
2017,07,14,16,59,24.80
2017,07,14,17,00,24.80
2017,07,14,17,01,24.80
2017,07,14,17,02,24.80
2017,07,14,17,03,24.80
2017,07,14,17,04,24.80
2017,07,14,17,05,24.80
2017,07,14,17,06,24.90
2017,07,14,17,07,24.80
2017,07,14,17,08,24.70
2017,07,14,17,09,24.70
2017,07,14,17,10,24.70
2017,07,14,17,11,24.70
2017,07,14,17,12,24.70
2017,07,14,17,13,24.70
2017,07,14,17,14,24.70
2017,07,14,17,15,24.70
2017,07,14,17,16,24.70
2017,07,14,17,17,24.70
2017,07,14,17,18,24.70
2017,07,14,17,19,24.70
2017,07,14,17,20,24.80
2017,07,14,17,21,24.80
2017,07,14,17,22,24.90
2017,07,14,17,23,24.90
2017,07,14,17,24,24.80
2017,07,14,17,25,24.80
2017,07,14,17,26,24.80
2017,07,14,17,27,24.80
2017,07,14,17,28,24.80
2017,07,14,17,29,24.80
2017,07,14,17,30,24.90